[[{"header":{"parameterUnit":"m.s-1","parameterCategory":1,"la1":30.2991,"la2":30.254,"lo1":-89.0895,"lo2":-89.0444,"dy":0.0017,"dx":0.0017,"nx":28,"ny":28,"refTime":"2026-01-07T03:00:00:Z","depth":0,"parameterNumber":2,"parameterNumberName":"U-component_of_WINDS"},"data":[0,0,0,0,0,0,0,0,0,0,0,0,0,0,0,0,0,0,0,0,0,0,0,0,0,0,0,0,0,0,0,0,0,0,0,0,0,0,0,0,0,0,0,0,0,0,0,0,0,0,0,0,0,0,0,0,0,0,0.3976,0.3976,0,0.4028,0.4028,0.4029,0.4002,0.4001,0.3999,0.3998,0.4056,0.4059,0.4062,0,0,0,0,0,0,0,0,0,0,0,0,0,0.3859,0.3861,0.3976,0.3976,0.3977,0.4028,0.4028,0.4029,0.4002,0.4001,0.3999,0.3998,0.4055,0.4058,0.4062,0,0,0,0,0,0,0,0,0,0,0,0,0,0.391,0.3862,0.3976,0.397,0.397,0.4027,0.4028,0.4029,0.4003,0.4001,0.3999,0.3997,0.4054,0.4058,0.4062,0.413,0,0,0.4075,0.4077,0,0,0,0,0,0,0,0,0.3907,0.3915,0.397,0.397,0.397,0.4006,0.4008,0.4063,0.4003,0.399,0.3998,0.3996,0.4041,0.4047,0.4061,0.4133,0.4135,0.4076,0.4078,0.408,0.4081,0,0,0,0,0,0,0,0.3904,0.3912,0.3996,0.3971,0.3971,0.3966,0.3971,0.4019,0.4027,0.3991,0.399,0.3996,0.4041,0.4057,0.4062,0.4136,0.4075,0.4079,0.4082,0.4084,0.4268,0.427,0,0,0,0,0,0,0.39,0.3909,0.3995,0.3998,0.3933,0.397,0.3976,0.3997,0.4026,0.4029,0.3998,0.3994,0.4051,0.4057,0.4064,0.4147,0.408,0.4084,0.4086,0.4266,0.4268,0.4271,0,0,0,0,0,0,0.3898,0.3908,0.3993,0.3953,0.3964,0.3974,0.3998,0.3999,0.4015,0.4031,0.4033,0.4012,0.4049,0.4058,0.4114,0.4148,0.4086,0.409,0.4263,0.4266,0.427,0.4311,0,0,0,0,0,0,0.3894,0.3907,0.3932,0.3954,0.3966,0.404,0.4,0.4002,0.4022,0.4018,0.4045,0.4047,0.4048,0.4108,0.4118,0.4153,0.4093,0.426,0.4264,0.4269,0.4307,0.4316,0.4323,0,0,0,0,0,0.389,0.3942,0.3933,0.3944,0.3997,0.4042,0.4049,0.4048,0.4024,0.405,0.4061,0.4047,0.4142,0.4114,0.4125,0.4162,0.4258,0.4263,0.4268,0.4303,0.4314,0.4323,0,0,0,0,0,0,0.3925,0.3945,0.3935,0.3995,0.4017,0.4038,0.407,0.4059,0.4089,0.4085,0.4083,0.409,0.4148,0.416,0.4128,0.423,0.4197,0.4205,0.4219,0.423,0.4238,0.4234,0.4097,0,0,0,0,0,0.3939,0.3973,0.3989,0.4041,0.4052,0.4059,0.4079,0.4076,0.4099,0.4109,0.4123,0.4148,0.4184,0.4207,0.4241,0.4308,0.4315,0.4339,0.4348,0.4354,0.4362,0.44,0.4411,0.4288,0.4288,0.4288,0,0,0.397,0.3985,0.4007,0.4048,0.4065,0.4102,0.4067,0.4107,0.4135,0.4115,0.4169,0.4181,0.4208,0.427,0.4298,0.4282,0.4397,0.4361,0.4366,0.437,0.4406,0.4418,0.4428,0.4292,0.4291,0.4291,0,0,0.4044,0.4058,0.4104,0.4121,0.4146,0.415,0.4161,0.4184,0.419,0.4244,0.423,0.4264,0.4325,0.4345,0.4364,0.4447,0.4436,0.4458,0.4502,0.4539,0.4549,0.4557,0.4589,0.46,0.4465,0.4465,0.4465,0,0.408,0.4133,0.4129,0.417,0.419,0.4172,0.4219,0.4236,0.4272,0.4287,0.4268,0.4345,0.4362,0.4429,0.445,0.4465,0.4479,0.4456,0.4547,0.4556,0.4564,0.4594,0.4606,0.4468,0.4468,0.4467,0.4467,0,0.4176,0.4213,0.4247,0.4281,0.4304,0.4348,0.4352,0.4377,0.4372,0.4379,0.4435,0.4454,0.4492,0.4508,0.4504,0.4576,0.4565,0.4547,0.4514,0.4579,0.4607,0.4618,0.4472,0.4471,0.447,0.4469,0,0,0.4274,0.4304,0.4317,0.4333,0.436,0.4389,0.4433,0.4469,0.4491,0.4516,0.4555,0.4607,0.4591,0.4612,0.461,0.4643,0.4709,0.4621,0.4621,0.4638,0.4791,0.4806,0.4819,0.4702,0.4704,0.4705,0.479,0,0.4351,0.4426,0.4424,0.4495,0.4531,0.4515,0.4554,0.4576,0.4584,0.4617,0.4626,0.4664,0.4638,0.4651,0.4682,0.4694,0.474,0.4688,0.4739,0.4741,0.4734,0.4833,0.4848,0.4926,0.48,0.4802,0.4803,0,0.4451,0.4479,0.4553,0.4576,0.4591,0.4625,0.4659,0.469,0.4715,0.4718,0.4742,0.4736,0.4783,0.4747,0.4813,0.4778,0.4798,0.4808,0.4811,0.4816,0.4777,0.4843,0.4951,0.4964,0.482,0.4819,0.4818,0,0.4517,0.4573,0.4625,0.4639,0.4666,0.4691,0.4704,0.4727,0.4749,0.4779,0.4793,0.4829,0.4848,0.4877,0.4881,0.4855,0.4947,0.4912,0.4954,0.4954,0.4975,0.4973,0.5089,0.4986,0.4986,0.4986,0.4985,0,0.4604,0.465,0.4655,0.4687,0.4739,0.4737,0.479,0.48,0.4821,0.4856,0.4845,0.4879,0.4882,0.4917,0.4921,0.4975,0.4984,0.499,0.4991,0.4992,0.4991,0.5006,0.5001,0.4989,0.4988,0.4987,0.4987,0,0.4686,0.4691,0.4747,0.4768,0.4775,0.4812,0.4831,0.4863,0.487,0.4915,0.4926,0.4937,0.4979,0.4985,0.5034,0.5036,0.5102,0.5097,0.5093,0.5093,0.5134,0.5131,0.5265,0.5283,0.5167,0.5168,0.5169,0,0.4742,0.4777,0.4802,0.4825,0.4839,0.4875,0.4897,0.4897,0.4921,0.4953,0.4982,0.5021,0.5053,0.512,0.5134,0.5171,0.5167,0.5212,0.5173,0.5174,0.517,0.5168,0.5172,0.522,0.5221,0.5222,0.5223,0,0.4841,0.4841,0.4873,0.4907,0.4934,0.496,0.4985,0.5005,0.5008,0.5037,0.5078,0.5102,0.5152,0.5192,0.523,0.5245,0.5236,0.5235,0.5246,0.5248,0.5246,0.5249,0.5115,0.5232,0.5231,0.523,0.523,0.5229,0.4912,0.4943,0.4966,0.5003,0.5022,0.5046,0.5077,0.5088,0.5121,0.5161,0.5159,0.5205,0.5231,0.528,0.5298,0.5335,0.5321,0.5338,0.5342,0.5347,0.5351,0.5239,0.5342,0.5342,0.5341,0.5341,0.5341,0,0.5012,0.5026,0.5059,0.5094,0.5124,0.5111,0.5138,0.5164,0.5204,0.5229,0.526,0.5309,0.5348,0.5365,0.5404,0.5431,0.5428,0.5441,0.544,0.5444,0.5361,0.5347,0.5443,0.5443,0.5443,0.5443,0.5443,0.5443,0.5067,0.5119,0.5123,0.5186,0.52,0.5244,0.5261,0.5284,0.5303,0.5357,0.5389,0.54,0.5422,0.5463,0.5499,0.5503,0.5519,0.5535,0.5537,0.546,0.5449,0.544,0.5427,0.5538,0.5538,0.5617,0.5618,0.5618]},{"header":{"parameterUnit":"m.s-1","parameterCategory":1,"la1":30.2991,"la2":30.254,"lo1":-89.0895,"lo2":-89.0444,"dy":0.0017,"dx":0.0017,"nx":28,"ny":28,"refTime":"2026-01-07T03:00:00:Z","depth":0,"parameterNumber":3,"parameterNumberName":"V-component_of_WINDS"},"data":[0,0,0,0,0,0,0,0,0,0,0,0,0,0,0,0,0,0,0,0,0,0,0,0,0,0,0,0,0,0,0,0,0,0,0,0,0,0,0,0,0,0,0,0,0,0,0,0,0,0,0,0,0,0,0,0,0,0,2.5301,2.5302,0,2.547,2.5472,2.5474,2.5533,2.5532,2.5532,2.5531,2.5699,2.5704,2.5709,0,0,0,0,0,0,0,0,0,0,0,0,0,2.5024,2.5029,2.53,2.5302,2.5305,2.547,2.5472,2.5474,2.5533,2.5532,2.5532,2.5531,2.5698,2.5704,2.571,0,0,0,0,0,0,0,0,0,0,0,0,0,2.5164,2.503,2.53,2.5354,2.5361,2.5469,2.5472,2.5475,2.5533,2.5532,2.5531,2.5531,2.5696,2.5703,2.5711,2.5776,0,0,2.5734,2.5737,0,0,0,0,0,0,0,0,2.5156,2.5174,2.5344,2.5351,2.5358,2.548,2.5436,2.5576,2.5534,2.5468,2.5531,2.553,2.5627,2.564,2.5674,2.5784,2.5791,2.5735,2.5739,2.5742,2.5745,0,0,0,0,0,0,0,2.5146,2.5167,2.5367,2.5346,2.5355,2.5369,2.5387,2.5463,2.555,2.5473,2.5478,2.5498,2.563,2.5666,2.5678,2.5794,2.5734,2.5741,2.5746,2.5749,2.5968,2.5969,0,0,0,0,0,0,2.5128,2.5158,2.5362,2.5372,2.5253,2.5374,2.5395,2.5441,2.555,2.5565,2.5498,2.55,2.5654,2.5669,2.5684,2.577,2.5742,2.5749,2.5754,2.5967,2.5968,2.597,0,0,0,0,0,0,2.5122,2.5145,2.5355,2.5267,2.5295,2.538,2.5431,2.5445,2.5481,2.5568,2.5584,2.5519,2.5653,2.5673,2.5754,2.5776,2.5753,2.576,2.5965,2.5967,2.5969,2.594,0,0,0,0,0,0,2.5113,2.5143,2.5169,2.5267,2.5299,2.5423,2.5433,2.5449,2.5495,2.5498,2.5592,2.5607,2.5654,2.5742,2.5761,2.5786,2.5766,2.5964,2.5966,2.5969,2.5939,2.594,2.5941,0,0,0,0,0,2.5103,2.5153,2.5171,2.5195,2.5334,2.5424,2.5442,2.5498,2.5496,2.5524,2.558,2.5604,2.577,2.575,2.5772,2.5799,2.5963,2.5966,2.5968,2.5938,2.594,2.5941,0,0,0,0,0,0,2.5054,2.5167,2.5187,2.527,2.5337,2.5434,2.547,2.5497,2.5565,2.5565,2.5629,2.565,2.5726,2.577,2.5745,2.5869,2.5868,2.5875,2.5837,2.584,2.5841,2.5829,2.5772,0,0,0,0,0,2.5053,2.5118,2.5212,2.5276,2.5309,2.5383,2.5425,2.5462,2.5533,2.5561,2.5623,2.569,2.5758,2.5801,2.5868,2.5946,2.5967,2.5975,2.5976,2.5977,2.5983,2.6028,2.6033,2.5979,2.5979,2.5979,0,0,2.505,2.512,2.5157,2.5268,2.5324,2.5389,2.5407,2.5474,2.5523,2.5571,2.5652,2.5699,2.5778,2.5858,2.5896,2.5897,2.6003,2.5981,2.598,2.5986,2.6032,2.6037,2.6041,2.5981,2.5981,2.5981,0,0,2.508,2.5139,2.52,2.5257,2.5343,2.5393,2.5407,2.55,2.5535,2.5617,2.5655,2.5712,2.5827,2.5883,2.5926,2.5978,2.6003,2.5998,2.6004,2.6048,2.6052,2.6056,2.6076,2.6082,2.6003,2.6003,2.6003,0,2.5067,2.5168,2.5227,2.5294,2.5342,2.539,2.5452,2.5503,2.5606,2.5637,2.5638,2.5785,2.5841,2.5935,2.5948,2.5981,2.5999,2.5988,2.6047,2.6051,2.6056,2.6076,2.6083,2.6002,2.6002,2.6002,2.6002,0,2.5147,2.5216,2.5254,2.5355,2.5407,2.547,2.5539,2.5584,2.5617,2.5666,2.5749,2.5819,2.5902,2.5926,2.5958,2.6025,2.6024,2.6034,2.6035,2.6059,2.6079,2.6086,2.6,2.6001,2.6001,2.6001,0,0,2.515,2.5284,2.5297,2.5344,2.5443,2.5497,2.5563,2.5646,2.5684,2.5753,2.5809,2.5906,2.5918,2.5967,2.6005,2.6043,2.6081,2.605,2.6052,2.6054,2.616,2.6152,2.616,2.6098,2.61,2.6101,2.6154,0,2.5193,2.5315,2.5371,2.5467,2.5532,2.558,2.5637,2.5703,2.5751,2.5812,2.5864,2.5933,2.5942,2.5972,2.6012,2.6068,2.6103,2.6065,2.6151,2.6153,2.613,2.617,2.6161,2.6208,2.6162,2.6163,2.6164,0,2.526,2.5332,2.5435,2.5529,2.5558,2.5608,2.569,2.5748,2.5824,2.5856,2.5911,2.5949,2.6018,2.6013,2.611,2.6083,2.6121,2.6154,2.6157,2.6168,2.616,2.6182,2.6224,2.6231,2.6176,2.6175,2.6175,0,2.5254,2.5376,2.5454,2.5492,2.5602,2.5637,2.5684,2.576,2.5806,2.5877,2.5908,2.5984,2.6026,2.6084,2.614,2.6131,2.6232,2.6231,2.6261,2.6259,2.628,2.6278,2.633,2.6303,2.6303,2.6303,2.6303,0,2.5297,2.5358,2.5453,2.5501,2.5571,2.5635,2.5702,2.5752,2.5819,2.5877,2.5922,2.5975,2.6046,2.6108,2.6152,2.6226,2.6244,2.6271,2.6283,2.6268,2.6265,2.6295,2.6293,2.6305,2.6304,2.6304,2.6304,0,2.5301,2.5367,2.5455,2.5553,2.5579,2.5627,2.571,2.5758,2.5808,2.5881,2.5902,2.598,2.6055,2.6118,2.6215,2.6245,2.6323,2.6335,2.6298,2.6304,2.633,2.6327,2.6403,2.6416,2.6379,2.638,2.638,0,2.5325,2.5374,2.5478,2.5521,2.5568,2.5636,2.5685,2.575,2.5798,2.589,2.5926,2.6005,2.6072,2.619,2.6254,2.633,2.6345,2.6366,2.6356,2.634,2.6346,2.6343,2.6349,2.6367,2.6367,2.6367,2.6367,0,2.5361,2.5391,2.5461,2.5542,2.56,2.5666,2.5733,2.5766,2.5842,2.5894,2.5973,2.6025,2.6127,2.6204,2.6287,2.6334,2.6363,2.637,2.6381,2.6367,2.6344,2.6358,2.6301,2.6368,2.6368,2.6368,2.6368,2.6368,2.5376,2.5423,2.5504,2.558,2.5638,2.57,2.5751,2.5809,2.5876,2.5965,2.5999,2.6079,2.6155,2.6269,2.6316,2.638,2.6383,2.6398,2.6403,2.6406,2.6404,2.6333,2.6395,2.6395,2.6395,2.6395,2.6395,0,2.5415,2.547,2.554,2.5634,2.5694,2.5719,2.5795,2.5843,2.5914,2.5983,2.6049,2.6139,2.6215,2.6287,2.6366,2.6403,2.6419,2.6422,2.642,2.643,2.6396,2.638,2.6408,2.6408,2.6408,2.6408,2.6408,2.6408,2.5443,2.5523,2.5563,2.5672,2.5726,2.5808,2.5849,2.5907,2.5963,2.6063,2.6127,2.6174,2.6244,2.6329,2.64,2.6419,2.6446,2.6446,2.6468,2.6435,2.6433,2.6431,2.6415,2.6451,2.6451,2.6497,2.6498,2.6498]}]]